Regional Weather Roundup
Issued by NWS Charleston, SC

Current Version | Previous Version | Text Only | Print | Product List | Glossary Off
Versions: 1 2 3 4 5 6 7 8 9 10 11 12 13 14 15 16 17 18 19 20 21 22 23 24 25 26 27 28 29 30 31 32 33 34 35 36 37 38 39 40 41 42 43 44 45 46 47 48 49 50

255
ASUS42 KCHS 201612
RWRCHS

REGIONAL WEATHER ROUNDUP
NATIONAL WEATHER SERVICE CHARLESTON SC
1100 AM EST MON FEB 20 2017

NOTE: "FAIR" INDICATES FEW OR NO CLOUDS BELOW 12,000 FEET WITH NO
SIGNIFICANT WEATHER AND/OR OBSTRUCTIONS TO VISIBILITY.

NOT ALL STATIONS ARE QUALITY CONTROLLED. USE DATA WITH CAUTION...
ESPECIALLY DEWPOINT OBSERVATIONS.

SCZ027-030-031-034>040-042>050-201700-
...SOUTHEAST SOUTH CAROLINA...

CITY           SKY/WX    TMP DP  RH WIND       PRES   REMARKS
N CHARLESTON   MOSUNNY   69  47  45 VRB5      30.19F
WATERFRONT PRK   N/A     63  52  67 VRB2      30.19R
MOUNT PLEASANT FAIR      68  48  49 CALM      30.20F
JOHNS ISLAND   FAIR      68  48  49 NE7       30.20F
PINOPOLIS        N/A     57  52  82 N5        30.12R
MONCKS CORNER  FAIR      63  46  55 N6        30.21S
SUMMERVILLE    FAIR      64  46  52 CALM      30.21F
BEAUFORT MCAS  SUNNY     69  50  50 N3        30.20S
BEAUFORT ARPT  FAIR      66  50  55 NE5       30.20R
HILTON HEAD IS NOT AVBL
WALTERBORO     SUNNY     68  45  42 E3        30.21S
ALLENDALE      FAIR      68  45  42 N5        30.20S

...SOUTHERN MIDLANDS AND PEE DEE...

CITY           SKY/WX    TMP DP  RH WIND       PRES   REMARKS
GEORGETOWN     FAIR      66  45  45 NE6       30.21S
KINGSTREE      FAIR      63  43  48 N5        30.21F
ORANGEBURG     SUNNY     65  44  46 NE9       30.21S
BARNWELL       FAIR      68  46  45 NE9       30.21F
AIKEN          FAIR      66  41  39 NE9       30.25S
MANNING        FAIR      63  41  45 MISG      30.21F
COLUMBIA       MOSUNNY   68  44  42 E6        30.22R
SUMTER         SUNNY     65  43  44 NE7       30.20S
FLORENCE       SUNNY     65  45  48 NE6       30.21S
MYRTLE BEACH   SUNNY     66  43  42 E12       30.22R
N MYRTLE BEACH SUNNY     68  45  43 NE7       30.19S

$$

GAZ063-065-086>088-099>101-113>116-118-119-134>141-150-201700-
...SOUTHEAST GEORGIA...

CITY           SKY/WX    TMP DP  RH WIND       PRES   REMARKS
SAVANNAH ARPT  PTSUNNY   72  48  42 NE5       30.20S
HUNTER AAF     SUNNY     72  53  51 E7        30.17S
FORT STEWART   SUNNY     72  50  47 E5        30.17S
STATESBORO     SUNNY     70  52  54 E6        30.20S
SYLVANIA       SUNNY    N/A N/A N/A E6        30.22R
CLAXTON        FAIR      70  53  54 NE6       30.20S

...CSRA...CENTRAL AND FAR SOUTHEAST GEORGIA...

CITY           SKY/WX    TMP DP  RH WIND       PRES   REMARKS
THOMSON        SUNNY     68  49  50 E8        30.25F
AUGUSTA-BUSH   SUNNY     71  44  37 E8        30.21S
AUGUSTA-DANIEL SUNNY     67  42  40 E9        30.22S
SWAINSBORO     FAIR      68  46  45 E5        30.21R
VIDALIA        MOSUNNY   70  55  60 E5        30.21R
EASTMAN        FAIR      72  39  30 SE7       30.22F
HAZLEHURST     FAIR      71  55  57 E6        30.20R
ALMA           MOSUNNY   72  52  49 VRB6      30.19R
WAYCROSS       MOSUNNY   75  57  53 SE6       30.19R
JESUP          FAIR      72  50  46 SE6       30.20R
BAXLEY         FAIR      72  55  56 E9        30.19R
BRUNSWICK      SUNNY     72  55  56 E9        30.20R
SAINT SIMONS   SUNNY     70  51  51 NE12      30.19R

$$

SCZ027-028-034-036>038-045-046-048>050-GAZ119-141-201700-
...LAKE AND SUPPLEMENTAL COASTAL OBSERVATIONS...

STATION/POSITION TIME  TEMP    WIND        PRES    WAVE   SWELL
                       AIR SEA DIR/SP/G            HT/PER HT/PER/DIR
                 (UTC) (F)     (DEG/KT/KT) (MB)    (FT/S) (FT/S/D)
WINYAH BAY       1445   59      60/ 11     1022.0
LAKE MURRAY      1520   60      30/  2/  3 1022.7
ACE BASIN NERRS  NOT AVBL
FORT PULASKI     1548   60 60  100/  8/  9 1023.0R
SAPELO ISLAND    1500   70      50/  6     1022.0

$$

ANZ835-935-AMZ111-154-330-350-352-354-370-450-454-472-201700-
...C-MAN AND BUOY OBSERVATIONS...

STATION/POSITION TIME  TEMP    WIND        PRES    WAVE   SWELL
                       AIR SEA DIR/SP/G            HT/PER HT/PER/DIR
                 (UTC) (F)     (DEG/KT/KT) (MB)    (FT/S) (FT/S/D)
BUOY 41004       1450   64 69   50/ 14/ 16 1021.0    2/ 3
BUOY 41008       1450   63 62   30/  8/  8 1022.0    1
FOLLY BEACH CMAN 1500   60      40/  8/  9 1023.2R
CAPERS NEARSHORE 1508   58 59   40/ 10/ 12 1022.5R
FRIPP NEARSHORE  1508   60 60   50/ 10/ 12 1022.3R


STATION/POSITION TIME  TEMP    WIND        PRES    WAVE   SWELL
                       AIR SEA DIR/SP/G            HT/PER HT/PER/DIR
                 (UTC) (F)     (DEG/KT/KT) (MB)    (FT/S) (FT/S/D)
5E ST. MARYS GA  1530      64                N/A     1
FRYING PAN BUOY  1550   61 65   20/ 12/ 16 1022.0R   2/ 4
BUOY 41025       1550   57 63   10/ 17/ 21 1021.9R   3/ 4
CAPE LOOKOUT NC  1500   61      30/ 15/ 19 1022.3R
BUOY 41002       1450   70 71   30/ 17/ 19 1019.4    6/ 6
BUOY 41010       NOT AVBL
ST AUGUSTINE FL  1600   65 67   50/  4/  5 1022.6F


$$




USA.gov is the U.S. government's official web portal to all federal, state and local government web resources and services.